• Processing (Info)

  • MPEC 2005-P06 : 2005 OF3

    The following Minor Planet Electronic Circular may be linked-to from your own Web pages, but must not otherwise be redistributed electronically.

    A form allowing access to any MPEC is at the bottom of this page.


    Read MPEC 2005-P05 Read MPEC 2005-P07


    M.P.E.C. 2005-P06                                Issued 2005 Aug. 1, 11:20 UT
    
         The Minor Planet Electronic Circulars contain information on unusual
             minor planets and routine data on comets.  They are published
       on behalf of Commission 20 of the International Astronomical Union by the
              Minor Planet Center, Smithsonian Astrophysical Observatory,
                              Cambridge, MA 02138, U.S.A.
    
                      Supported in part by the Brinson Foundation
                 Prepared using the Tamkin Foundation Computer Network
    
                                  MPC@CFA.HARVARD.EDU
              URL http://cfa-www.harvard.edu/iau/mpc.html  ISSN 1523-6714
    
                                       2005 OF3
    
    Observations:
         K05O03F* C2005 07 30.32478 21 31 42.95 +21 46 35.1          19.4   EP006704
         K05O03F  C2005 07 30.33632 21 31 46.97 +21 44 58.5          18.9   EP006704
         K05O03F  C2005 07 30.34789 21 31 51.03 +21 43 23.7          19.7   EP006704
         K05O03F  C2005 07 30.35959 21 31 55.12 +21 41 46.1          18.6   EP006704
         K05O03F  C2005 07 31.00450 21 35 56.64 +20 15 23.5          17.5 R EP006176
         K05O03F  C2005 07 31.00503 21 35 56.80 +20 15 19.4          17.7 R EP006176
         K05O03F  C2005 07 31.00556 21 35 56.97 +20 15 15.3          18.0 R EP006176
         K05O03F  C2005 07 31.00609 21 35 57.14 +20 15 11.2          17.9 R EP006176
         K05O03F  C2005 07 31.01253 21 35 59.16 +20 14 21.4          18.0 R EP006176
         K05O03F  C2005 07 31.01306 21 35 59.33 +20 14 17.2          17.9 R EP006176
         K05O03F  C2005 07 31.01359 21 35 59.49 +20 14 13.1          18.1 R EP006176
         K05O03F  C2005 07 31.02637 21 36 01.28 +20 12 15.1          17.8 V EP006A50
         K05O03F  C2005 07 31.02678 21 36 01.43 +20 12 11.6          18.0 V EP006A50
         K05O03F  C2005 07 31.02720 21 36 01.58 +20 12 08.2          18.3 V EP006A50
         K05O03F  C2005 07 31.02763 21 36 01.67 +20 12 04.1          18.3 V EP006A50
         K05O03F  C2005 07 31.02804 21 36 01.82 +20 12 01.9          18.2 V EP006A50
         K05O03F  C2005 07 31.04987 21 36 10.52 +20 09 19.0                 EP006204
         K05O03F  C2005 07 31.05383 21 36 11.77 +20 08 48.6          18.1 R EP006204
         K05O03F  C2005 07 31.06608 21 36 15.71 +20 07 13.0                 EP006204
         K05O03F  C2005 07 31.16281 21 36 55.66 +19 54 52.9          18.0 R EP006734
         K05O03F  C2005 07 31.16410 21 36 56.12 +19 54 41.4          18.4 R EP006734
         K05O03F  C2005 07 31.16538 21 36 56.51 +19 54 33.4          18.7 R EP006734
         K05O03F  C2005 07 31.16667 21 36 56.90 +19 54 23.4          18.9 R EP006734
         K05O03F  C2005 07 31.16797 21 36 57.36 +19 54 13.9          18.2 R EP006734
         K05O03F  C2005 07 31.32528 21 37 47.12 +19 34 38.5          18.7   EP006704
         K05O03F  C2005 07 31.33647 21 37 50.42 +19 33 14.6          18.1   EP006704
         K05O03F  C2005 07 31.34774 21 37 53.78 +19 31 49.6          19.4   EP006704
         K05O03F  C2005 07 31.35893 21 37 57.13 +19 30 25.1          17.8   EP006704
         K05O03F  C2005 07 31.37009 21 38 00.44 +19 29 01.3          19.0   EP006704
         K05O03F 2C2005 07 31.40644 21 38 11.15 +19 24 27.4          17.9 R EP006H06
         K05O03F 2C2005 07 31.41016 21 38 12.19 +19 23 59.8          17.9 R EP006H06
         K05O03F  C2005 07 31.80191 21 40 26.42 +18 35 29.1          18.8 V EP006A50
         K05O03F  C2005 07 31.80267 21 40 26.53 +18 35 23.6          18.4 V EP006A50
         K05O03F  C2005 07 31.80344 21 40 26.78 +18 35 17.8          18.6 V EP006A50
         K05O03F  C2005 07 31.80421 21 40 27.17 +18 35 12.0          17.9 V EP006A50
         K05O03F  C2005 07 31.80574 21 40 27.58 +18 35 01.4          17.7 V EP006A50
         K05O03F  C2005 08 01.16984 21 42 15.61 +17 54 09.1          17.8 R EP006I77
         K05O03F  C2005 08 01.17248 21 42 16.39 +17 53 51.1          18.1 R EP006I77
         K05O03F  C2005 08 01.17512 21 42 17.02 +17 53 32.3          18.3 R EP006I77
         K05O03F  C2005 08 01.23520 21 42 37.88 +17 44 55.3          18.2 R EP006734
         K05O03F  C2005 08 01.23829 21 42 38.70 +17 44 33.9          18.0 R EP006734
         K05O03F  C2005 08 01.23907 21 42 38.90 +17 44 28.2          18.6 R EP006734
    
    Observer details:
    176 Observatori Astronomic de Consell.  Observers A. Lopez, R. Pacheco,
        J. Forteza.  0.41-m f/4 reflector + CCD.
    204 Schiaparelli Observatory.  Observer L. Buzzi.  0.60-m f/4.64 Newtonian
        reflector + CCD.
    704 Lincoln Laboratory ETS, New Mexico.  Observers M. Blythe, F. Shelly,
        M. Bezpalko, R. Huber, L. Manguso, D. Torres, R. Kracke, M. McCleary,
        H. Stange, A. Milner.  Measurers J. Stuart, R. Sayer, J. Evans, J. Kommers.
        1.0-m f/2.15 reflector + CCD.
    734 Farpoint Observatory.  Observers D. Tibbets, G. Hug.  Measurers
        J. Burgardt, G. Hug.  0.7-m reflector + CCD.
    A50 Andrushivka Astronomical Observatory.  Observers D. Kyrylenko,
        Y. Ivashchenko.  0.6-m f/2.0 reflector + CCD.
    H06 New Mexico Skies Observatory.  Observer R. Hutsebaut.  0.25-m reflector
        + CCD.
    I77 CEAMIG-REA Observatory, Belo Horizonte.  Observers C. Jacques, E. Pimentel.
        Measurer C. Jacques.  0.30-m f/3.0 Schmidt-Cassegrain + CCD.
    
    Orbital elements:
    2005 OF3
    Epoch 2005 July 29.0 TT = JDT 2453580.5                 MPC
    M   8.50790              (2000.0)            P               Q
    n   0.26754797     Peri.   94.53929     -0.01893628     +0.99980491
    a   2.3852557      Node   174.36649     -0.93851490     -0.01583771
    e   0.5882225      Incl.    3.28059     -0.34471902     -0.01180282
    P   3.68           H   22.1           G   0.15
    From 42 observations 2005 July 30-Aug. 1.
    
    Ephemeris:
    2005 OF3                 a,e,i = 2.39, 0.59, 3                   q = 0.9822
    Date    TT    R. A. (2000) Decl.     Delta      r     Elong.  Phase     V
    2005 07 29    21 22.12   +25 02.3    0.0725   1.067   134.6    42.7    18.2
    2005 08 08    22 05.09   +07 59.5    0.122    1.123   152.5    24.7    18.9
    2005 08 18    22 18.62   +00 12.8    0.181    1.188   164.8    12.9    19.5
    2005 08 28    22 24.02   -04 07.1    0.250    1.260   174.3     4.6    20.0
    2005 09 07    22 27.08   -06 44.0    0.331    1.336   171.2     6.6    20.8
    2005 09 17    22 30.36   -08 15.0    0.424    1.414   162.1    12.6    21.7
    
    Timothy B. Spahr             (C) Copyright 2005 MPC           M.P.E.C. 2005-P06
    

    Read MPEC 2005-P05 Read MPEC 2005-P07


    MPEC number:

    Enter an MPEC number in one of the following forms:

    • 1997-B01 (the full form)
    • J97B01 (the packed version of the full form)
    • B01 (the abbreviated form)